Notices

What's New in latest Release from April 7th, 2021:

- Updated Glossary, including Speed of Maximum Gust, and Total Hourly Precipitation

- Updated national and regional climate services offices contacts and prices information

- Addition of station inventory lists for 1981-2010, 1971-2000, and 1961-1990 Normals.

If you haven't already, please take our survey and provide feedback about our website: https://eccc.sondage-survey.ca/f/LanguageSelection.aspx?s=442ca660-fcf1-47c0-95a9-59707d6fd709

Hourly Data Report for November 03, 2019

VICTORIA UNIVERSITY CS
BRITISH COLUMBIA
Current Station Operator: ECCC - MSC

48°27'25.200" N
123°18'16.600" W
60.10 m
1018598
71783
WYJ

Download Data

Hourly Data (November 2019)
Hourly Data Report for November 3, 2019
TIME
LST
Temp Definition
°C
Dew Point Definition
°C
Rel Hum Definition
%
Precip. Amount Definition
mm

Wind Dir Definition
10's deg

Wind Spd Definition
km/h
Visibility Definition
km
Stn Press Definition
kPa
Hmdx Definition


Wind Chill Definition


Weather Definition


00:00 5.1 4.8 98 0.0 30 2   101.65     LegendNANA
01:00 4.8 4.6 98 0.0   0   101.59     LegendNANA
02:00 4.6 4.4 99 0.0   0   101.63     LegendNANA
03:00 5.5 5.3 99 0.0 34 4   101.63     LegendNANA
04:00 4.6 4.4 99 0.0 27 2   101.60     LegendNANA
05:00 4.9 4.8 99 0.0 31 3   101.61     LegendNANA
06:00 6.1 6.0 99 0.0 30 4   101.61     LegendNANA
07:00 6.5 6.3 98 0.0 32 4   101.61     LegendNANA
08:00 7.9 7.5 97 0.0 33 4   101.67     LegendNANA
09:00 8.7 8.1 96 0.0 33 2   101.66     LegendNANA
10:00 9.4 8.1 92 0.0 4 3   101.69     LegendNANA
11:00 9.3 8.2 93 0.0 2 4   101.72     LegendNANA
12:00 9.8 8.1 89 0.0 33 6   101.67     LegendNANA
13:00 11.2 8.2 82 0.0 32 5   101.60     LegendNANA
14:00 11.4 7.6 78 0.0 32 4   101.58     LegendNANA
15:00 11.4 7.4 76 0.0 33 8   101.56     LegendNANA
16:00 10.3 7.2 81 0.0   0   101.53     LegendNANA
17:00 9.0 7.0 87 0.0 24 3   101.53     LegendNANA
18:00 6.8 5.8 94 0.0   0   101.51     LegendNANA
19:00 5.5 5.0 96 0.0   0   101.52     LegendNANA
20:00 6.8 6.5 98 0.0 0 1   101.51     LegendNANA
21:00 6.3 5.9 97 0.0 31 2   101.55     LegendNANA
22:00 5.7 5.3 98 0.0   0   101.58     LegendNANA
23:00 5.1 4.8 98 0.0 29 2   101.60     LegendNANA

Notes on Data Quality.

Legend

  • E = Estimated
  • M = Missing
  • NA = Not Available*
  • [empty] = Indicates an unobserved value
Date modified: